[[{"header":{"parameterUnit":"m.s-1","parameterCategory":1,"la1":30.2991,"la2":30.254,"lo1":-89.0895,"lo2":-89.0444,"dy":0.0017,"dx":0.0017,"nx":28,"ny":28,"refTime":"2025-04-07T21:00:00:Z","depth":0,"parameterNumber":2,"parameterNumberName":"U-component_of_WINDS"},"data":[0,0,0,0,0,0,0,0,0,0,0,0,0,0,0,0,0,0,0,0,0,0,0,0,0,0,0,0,0,0,0,0,0,0,0,0,0,0,0,0,0,0,0,0,0,0,0,0,0,0,0,0,0,0,0,0,0,0,3.066,3.0661,0,3.0749,3.075,3.0751,3.073,3.0728,3.0726,3.0725,3.0817,3.0821,3.0825,0,0,0,0,0,0,0,0,0,0,0,0,0,3.0472,3.0475,3.066,3.0661,3.0662,3.0749,3.075,3.0751,3.073,3.0728,3.0726,3.0724,3.0815,3.082,3.0825,0,0,0,0,0,0,0,0,0,0,0,0,0,3.0556,3.0476,3.0659,3.0662,3.0663,3.0749,3.075,3.0752,3.0731,3.0728,3.0725,3.0723,3.0814,3.082,3.0826,3.0915,0,0,3.0844,3.0847,0,0,0,0,0,0,0,0,3.0552,3.0563,3.066,3.0662,3.0663,3.0726,3.0718,3.0806,3.0731,3.0705,3.0725,3.0722,3.0788,3.0796,3.0819,3.0919,3.0923,3.0845,3.0848,3.0851,3.0853,0,0,0,0,0,0,0,3.0546,3.0559,3.0695,3.0662,3.0664,3.0659,3.0668,3.0734,3.076,3.0707,3.0706,3.0717,3.0789,3.0813,3.0821,3.0924,3.0845,3.085,3.0854,3.0856,3.1104,3.1107,0,0,0,0,0,0,3.0539,3.0555,3.0692,3.0698,3.06,3.0664,3.0675,3.0708,3.0759,3.0765,3.0719,3.0715,3.0804,3.0814,3.0824,3.0933,3.0851,3.0857,3.086,3.1101,3.1105,3.1108,0,0,0,0,0,0,3.0535,3.0551,3.0689,3.0626,3.0643,3.067,3.0708,3.0711,3.0736,3.0768,3.0773,3.0739,3.0802,3.0816,3.0893,3.0936,3.0859,3.0865,3.1098,3.1102,3.1107,3.1151,0,0,0,0,0,0,3.0529,3.055,3.0584,3.0627,3.0646,3.0756,3.0711,3.0715,3.0746,3.0743,3.0788,3.0793,3.0801,3.0884,3.0899,3.0943,3.087,3.1094,3.11,3.1105,3.1146,3.1157,3.1166,0,0,0,0,0,3.0523,3.0592,3.0585,3.0602,3.0689,3.0758,3.0769,3.0777,3.075,3.0784,3.0805,3.0792,3.0929,3.0892,3.0909,3.0955,3.1091,3.1098,3.1105,3.1142,3.1155,3.1166,0,0,0,0,0,0,3.0553,3.0598,3.0591,3.0676,3.0714,3.0754,3.0798,3.079,3.0836,3.0831,3.0839,3.0849,3.0929,3.0949,3.0908,3.1045,3.1006,3.1017,3.1029,3.1041,3.1051,3.1045,3.0875,0,0,0,0,0,3.057,3.0622,3.0658,3.073,3.0749,3.0771,3.0801,3.0804,3.0843,3.0858,3.0885,3.0924,3.0976,3.1009,3.1059,3.1149,3.116,3.119,3.1199,3.1207,3.1216,3.1268,3.1282,3.113,3.113,3.113,0,0,3.0604,3.0635,3.0668,3.0737,3.0766,3.0821,3.0784,3.0842,3.0883,3.0867,3.0942,3.0963,3.1007,3.1092,3.113,3.1112,3.1261,3.1216,3.1222,3.1227,3.1276,3.129,3.1303,3.1134,3.1134,3.1133,0,0,3.0696,3.0724,3.0788,3.0818,3.0863,3.0877,3.0893,3.0935,3.0949,3.1024,3.1014,3.1063,3.1151,3.1184,3.1212,3.1317,3.1307,3.1333,3.1385,3.1435,3.1447,3.1457,3.1496,3.151,3.1342,3.1342,3.1342,0,3.0734,3.0815,3.0822,3.0882,3.0913,3.0902,3.0967,3.0996,3.1055,3.1078,3.1056,3.1168,3.1197,3.129,3.1316,3.1338,3.1357,3.1328,3.1444,3.1455,3.1465,3.1503,3.1517,3.1345,3.1345,3.1344,3.1344,0,3.086,3.0916,3.0962,3.102,3.1057,3.1119,3.1136,3.1173,3.1173,3.1189,3.1267,3.1301,3.1358,3.138,3.1381,3.1474,3.1462,3.1442,3.1403,3.1482,3.1518,3.1532,3.1349,3.1348,3.1347,3.1346,0,0,3.0972,3.1034,3.1051,3.1078,3.1127,3.1172,3.1234,3.129,3.1322,3.1363,3.1416,3.1493,3.1476,3.1507,3.1511,3.1555,3.1639,3.153,3.1532,3.1551,3.1746,3.1761,3.1777,3.1632,3.1635,3.1637,3.1743,0,3.1069,3.1179,3.1188,3.1287,3.1341,3.1331,3.1386,3.1423,3.144,3.1489,3.1508,3.1563,3.1535,3.1554,3.1597,3.1619,3.1678,3.1612,3.1683,3.1685,3.1673,3.1795,3.1811,3.1909,3.1756,3.1759,3.176,0,3.1196,3.1242,3.1347,3.1391,3.1414,3.1463,3.1516,3.1562,3.1604,3.1613,3.165,3.1649,3.1714,3.1672,3.1763,3.1718,3.1748,3.1764,3.1768,3.1775,3.1728,3.1808,3.194,3.1956,3.1782,3.178,3.1779,0,3.127,3.1358,3.1432,3.1455,3.1508,3.1543,3.1566,3.1606,3.164,3.1686,3.1708,3.1762,3.1791,3.1833,3.1847,3.1815,3.1938,3.1897,3.1949,3.1949,3.1976,3.1974,3.2116,3.1993,3.1993,3.1993,3.1992,0,3.1378,3.1442,3.1466,3.1512,3.1585,3.1595,3.1667,3.1689,3.1725,3.1775,3.177,3.1818,3.1833,3.1883,3.1894,3.1969,3.1982,3.1993,3.1995,3.1994,3.1993,3.2014,3.2008,3.1996,3.1996,3.1995,3.1994,0,3.1472,3.149,3.1571,3.1615,3.1627,3.1679,3.1717,3.1762,3.1779,3.1843,3.1859,3.1886,3.1946,3.1963,3.2035,3.2042,3.2131,3.2126,3.2116,3.2117,3.2169,3.2164,3.233,3.2353,3.2214,3.2215,3.2216,0,3.154,3.159,3.1639,3.1673,3.1698,3.1752,3.1787,3.1799,3.1835,3.1888,3.1927,3.1986,3.2034,3.213,3.2156,3.2212,3.2209,3.2264,3.2218,3.2216,3.2212,3.2209,3.2215,3.2273,3.2274,3.2276,3.2276,0,3.1659,3.1666,3.1716,3.177,3.1812,3.1855,3.1896,3.1924,3.1943,3.1984,3.2045,3.2083,3.2156,3.2216,3.2272,3.2297,3.2291,3.2291,3.2306,3.2306,3.2299,3.2305,3.2142,3.2287,3.2286,3.2285,3.2285,3.2284,3.1743,3.1788,3.183,3.1887,3.1919,3.1958,3.2003,3.2027,3.2078,3.2139,3.2143,3.221,3.2252,3.2327,3.2355,3.2408,3.2393,3.2414,3.242,3.2425,3.2431,3.229,3.2419,3.2418,3.2418,3.2418,3.2418,0,3.1864,3.1891,3.1942,3.2001,3.2046,3.2036,3.2082,3.212,3.2179,3.2219,3.2267,3.2338,3.2396,3.2427,3.2485,3.2522,3.2521,3.2537,3.2535,3.2541,3.244,3.2422,3.2537,3.2537,3.2537,3.2537,3.2537,3.2537,3.1932,3.2007,3.2019,3.2112,3.2138,3.2204,3.2231,3.2268,3.23,3.238,3.2428,3.2448,3.2486,3.2547,3.26,3.2608,3.263,3.2648,3.2655,3.256,3.2548,3.2536,3.2519,3.2653,3.2653,3.2751,3.2752,3.2753]},{"header":{"parameterUnit":"m.s-1","parameterCategory":1,"la1":30.2991,"la2":30.254,"lo1":-89.0895,"lo2":-89.0444,"dy":0.0017,"dx":0.0017,"nx":28,"ny":28,"refTime":"2025-04-07T21:00:00:Z","depth":0,"parameterNumber":3,"parameterNumberName":"V-component_of_WINDS"},"data":[0,0,0,0,0,0,0,0,0,0,0,0,0,0,0,0,0,0,0,0,0,0,0,0,0,0,0,0,0,0,0,0,0,0,0,0,0,0,0,0,0,0,0,0,0,0,0,0,0,0,0,0,0,0,0,0,0,0,-3.5734,-3.5736,0,-3.5901,-3.5903,-3.5905,-3.5918,-3.5916,-3.5914,-3.5912,-3.6084,-3.609,-3.6096,0,0,0,0,0,0,0,0,0,0,0,0,0,-3.5429,-3.5434,-3.5734,-3.5736,-3.5738,-3.5901,-3.5903,-3.5905,-3.5918,-3.5916,-3.5914,-3.5912,-3.6082,-3.6089,-3.6097,0,0,0,0,0,0,0,0,0,0,0,0,0,-3.5575,-3.5436,-3.5734,-3.5764,-3.5769,-3.59,-3.5903,-3.5906,-3.5919,-3.5916,-3.5913,-3.5911,-3.608,-3.6089,-3.6098,-3.6211,0,0,-3.6127,-3.6131,0,0,0,0,0,0,0,0,-3.5567,-3.5586,-3.5758,-3.5762,-3.5767,-3.5886,-3.5858,-3.6008,-3.5919,-3.5862,-3.5912,-3.5909,-3.602,-3.6035,-3.6072,-3.6219,-3.6226,-3.6128,-3.6133,-3.6137,-3.614,0,0,0,0,0,0,0,-3.5556,-3.5579,-3.58,-3.576,-3.5766,-3.577,-3.5788,-3.5887,-3.5954,-3.5867,-3.5868,-3.5887,-3.6023,-3.6063,-3.6076,-3.6229,-3.6127,-3.6136,-3.6142,-3.6145,-3.6479,-3.6482,0,0,0,0,0,0,-3.554,-3.557,-3.5795,-3.5805,-3.5658,-3.5778,-3.5798,-3.5851,-3.5953,-3.5966,-3.589,-3.5887,-3.6048,-3.6065,-3.6082,-3.6222,-3.6137,-3.6146,-3.6152,-3.6476,-3.648,-3.6483,0,0,0,0,0,0,-3.5534,-3.556,-3.5788,-3.5688,-3.5718,-3.5786,-3.5845,-3.5855,-3.5896,-3.5971,-3.5983,-3.5918,-3.6047,-3.6069,-3.6179,-3.6228,-3.615,-3.6159,-3.6472,-3.6477,-3.6482,-3.6502,0,0,0,0,0,0,-3.5525,-3.5558,-3.5601,-3.5689,-3.5723,-3.5882,-3.5848,-3.5861,-3.5912,-3.591,-3.6001,-3.6013,-3.6046,-3.6165,-3.6189,-3.624,-3.6166,-3.6468,-3.6474,-3.648,-3.6498,-3.6507,-3.6516,0,0,0,0,0,-3.5514,-3.5599,-3.5603,-3.563,-3.5778,-3.5885,-3.5904,-3.594,-3.5915,-3.596,-3.6009,-3.601,-3.6219,-3.6176,-3.6203,-3.6258,-3.6465,-3.6473,-3.648,-3.6494,-3.6505,-3.6515,0,0,0,0,0,0,-3.5515,-3.5612,-3.5616,-3.5733,-3.58,-3.5886,-3.5943,-3.5951,-3.6027,-3.6023,-3.6065,-3.6085,-3.6194,-3.6237,-3.6188,-3.6373,-3.634,-3.6353,-3.6341,-3.6353,-3.6362,-3.6349,-3.6174,0,0,0,0,0,-3.5528,-3.5606,-3.5687,-3.5782,-3.5816,-3.5874,-3.5922,-3.5944,-3.6016,-3.6044,-3.6101,-3.6171,-3.6252,-3.6305,-3.6384,-3.6504,-3.6525,-3.6555,-3.6564,-3.6571,-3.6582,-3.665,-3.6665,-3.6507,-3.6507,-3.6507,0,0,-3.5558,-3.562,-3.5667,-3.5784,-3.5839,-3.592,-3.5898,-3.5984,-3.6044,-3.6057,-3.6165,-3.6209,-3.629,-3.6406,-3.646,-3.6446,-3.663,-3.658,-3.6585,-3.6592,-3.6659,-3.6674,-3.6687,-3.6512,-3.6511,-3.6511,0,0,-3.5652,-3.5707,-3.5793,-3.5849,-3.5932,-3.5971,-3.5991,-3.6077,-3.6107,-3.6216,-3.6228,-3.6301,-3.644,-3.6498,-3.6546,-3.6664,-3.6669,-3.6689,-3.6736,-3.6802,-3.6814,-3.6826,-3.6869,-3.6884,-3.67,-3.67,-3.67,0,-3.5678,-3.5799,-3.5836,-3.5922,-3.5974,-3.599,-3.6079,-3.6131,-3.6236,-3.6272,-3.6254,-3.6431,-3.6486,-3.6617,-3.6646,-3.6684,-3.6709,-3.6679,-3.681,-3.6821,-3.6832,-3.6874,-3.689,-3.6701,-3.6701,-3.6701,-3.6701,0,-3.5827,-3.5911,-3.5971,-3.6072,-3.6131,-3.6218,-3.6269,-3.6324,-3.6342,-3.6382,-3.6494,-3.6562,-3.6656,-3.6688,-3.6706,-3.6822,-3.6811,-3.6801,-3.6768,-3.6848,-3.6888,-3.6905,-3.6704,-3.6704,-3.6703,-3.6702,0,0,-3.5925,-3.6047,-3.6069,-3.6116,-3.621,-3.6276,-3.6365,-3.6457,-3.6504,-3.6576,-3.6652,-3.6771,-3.6763,-3.6817,-3.6842,-3.69,-3.6991,-3.6883,-3.6886,-3.6901,-3.7124,-3.7131,-3.7149,-3.6995,-3.6998,-3.7001,-3.7118,0,-3.603,-3.6187,-3.6224,-3.6359,-3.6438,-3.6455,-3.6533,-3.66,-3.664,-3.6714,-3.6759,-3.6843,-3.6826,-3.6859,-3.6917,-3.6967,-3.7036,-3.6959,-3.7067,-3.707,-3.7045,-3.717,-3.7177,-3.7284,-3.7133,-3.7136,-3.7138,0,-3.6173,-3.625,-3.6392,-3.6478,-3.6513,-3.6581,-3.6669,-3.6739,-3.6817,-3.6842,-3.6904,-3.6923,-3.7017,-3.698,-3.7111,-3.7057,-3.7104,-3.7136,-3.7141,-3.7152,-3.7108,-3.7184,-3.7319,-3.7335,-3.7163,-3.7161,-3.7159,0,-3.6231,-3.637,-3.6473,-3.6513,-3.6615,-3.6664,-3.6709,-3.6783,-3.6836,-3.6914,-3.6949,-3.7037,-3.7085,-3.7153,-3.7196,-3.7165,-3.7324,-3.7289,-3.7348,-3.7347,-3.738,-3.7378,-3.7524,-3.741,-3.741,-3.741,-3.7409,0,-3.6345,-3.6431,-3.6501,-3.6565,-3.6663,-3.6706,-3.6802,-3.6847,-3.6914,-3.6988,-3.7009,-3.7077,-3.713,-3.7207,-3.7242,-3.7345,-3.7367,-3.7391,-3.7399,-3.7389,-3.7386,-3.742,-3.7413,-3.7414,-3.7413,-3.7412,-3.7411,0,-3.6425,-3.6475,-3.659,-3.6678,-3.6702,-3.6771,-3.6847,-3.691,-3.6952,-3.7045,-3.707,-3.7136,-3.7227,-3.7278,-3.7392,-3.7416,-3.7532,-3.7536,-3.7505,-3.7509,-3.7565,-3.7559,-3.7738,-3.7764,-3.7633,-3.7634,-3.7635,0,-3.6494,-3.6562,-3.6657,-3.6708,-3.6754,-3.6836,-3.6891,-3.6936,-3.6993,-3.7087,-3.7139,-3.7232,-3.7308,-3.7454,-3.7513,-3.7601,-3.7608,-3.7665,-3.7621,-3.761,-3.761,-3.7605,-3.7612,-3.7672,-3.7673,-3.7674,-3.7675,0,-3.6612,-3.6634,-3.6712,-3.68,-3.6865,-3.6936,-3.7006,-3.7047,-3.7104,-3.7167,-3.7261,-3.7321,-3.7439,-3.7531,-3.7624,-3.7672,-3.7684,-3.7688,-3.7707,-3.7697,-3.7677,-3.7689,-3.7526,-3.7684,-3.7683,-3.7682,-3.7682,-3.7681,-3.6689,-3.675,-3.6828,-3.6915,-3.6973,-3.7039,-3.7103,-3.7154,-3.7232,-3.7332,-3.7354,-3.7453,-3.7531,-3.7658,-3.7708,-3.7787,-3.7776,-3.7803,-3.781,-3.7815,-3.7818,-3.7665,-3.7804,-3.7804,-3.7804,-3.7804,-3.7804,0,-3.6808,-3.6859,-3.6939,-3.7037,-3.7106,-3.7111,-3.719,-3.7248,-3.7335,-3.7406,-3.7481,-3.759,-3.7681,-3.7747,-3.784,-3.7891,-3.7899,-3.7913,-3.791,-3.7921,-3.7822,-3.7797,-3.7906,-3.7906,-3.7906,-3.7906,-3.7906,-3.7905,-3.6878,-3.6982,-3.7013,-3.7147,-3.7198,-3.7295,-3.734,-3.7402,-3.7459,-3.758,-3.7655,-3.7698,-3.7768,-3.7866,-3.795,-3.7967,-3.8,-3.8015,-3.8033,-3.7939,-3.7928,-3.7918,-3.7894,-3.8022,-3.8022,-3.8126,-3.8127,-3.8127]}]]